Погода в Тавильдаре

Таджикистан     38°41′46″N   70°28′54″E
темп.,
°C
ветер,
м/с
пор.,
м/с
влажн.,
%
обл.,
%
осадки,
мм/ч
давл.,
гПа
погр.,
м
12 августа, пт
пт1223:00+11ююз22470 0.0 101311
02:00+9юв11530 0.0 101310
05:00+9в22550 0.0 101410
08:00+16всв11330 0.0 1013508
11:00+22з33230 0.0 10091727
14:00+26з45173 0.0 10053094
17:00+24зюз65180 0.0 10052461
20:00+15юз33330 0.0 100913
13 августа, сб
сб1323:00+12ююз22420 0.0 101111
02:00+10ююв11490 0.0 101210
05:00+9в22520 0.0 101210
08:00+18всв11300 0.0 1012483
11:00+23з33190 0.0 10082294
14:00+26з43131 0.0 10053225
17:00+25зюз43130 0.0 10052782
20:00+16юз33290 0.0 100913
14 августа, вс
вс1423:00+13ююз22390 0.0 101011
02:00+11юв11460 0.0 101011
05:00+10в21490 0.0 101111
08:00+19в11270 0.0 1010452
11:00+24з32160 0.0 10071960
14:00+28зюз451148 0.0 10042997
17:00+26юз451398 0.0 10052198
20:00+17юз332628 0.0 100814
15 августа, пн
пн1523:00+14ююз22345 0.0 101011
02:00+12ююв11385 0.0 101011
05:00+11вюв11434 0.0 101011
08:00+19юз11254 0.0 1010475
11:00+25зюз34171 0.0 10072015
14:00+27зюз56135 0.0 10062779
17:00+26зюз45156 0.0 10062279
20:00+17юз22280 0.0 100912
16 августа, вт
вт1623:00+14ююз22331 0.0 101111
02:00+12ю22364 0.0 101111
05:00+11юв11438 0.0 101210
08:00+19юз12245 0.0 1011610
11:00+24зюз45182 0.0 10092359
14:00+26зюз56160 0.0 10072983
17:00+24зюз56160 0.0 10072579
20:00+16юз33280 0.0 101116